Regional Weather Roundup
Issued by NWS

Home | Current Version | Previous Version | Graphics & Text | Print | Product List | Glossary On
Versions: 1 2 3 4 5 6 7 8 9 10 11 12 13 14 15 16 17 18 19 20 21 22 23 24 25 26 27 28 29 30 31 32 33 34 35 36 37 38 39 40 41 42 43 44 45 46 47 48 49 50
000
ASUS43 KMKX 230800
RWRWI

WISCONSIN REGIONAL WEATHER ROUNDUP
NATIONAL WEATHER SERVICE MILWAUKEE/SULLIVAN WI
300 AM CDT SUN APR 23 2017

NOTE: "FAIR" INDICATES FEW OR NO CLOUDS BELOW 12,000 FEET WITH NO
SIGNIFICANT WEATHER AND/OR OBSTRUCTIONS TO VISIBILITY.

WIZ001-002-006>008-014>016-023>028-230900-
NORTHWEST WISCONSIN

CITY           SKY/WX    TMP DP  RH WIND       PRES   REMARKS
SUPERIOR ARPT  CLOUDY    45  38  78 NE9       30.12R
ASHLAND        CLOUDY    44  39  82 N8        30.11R
HAYWARD        CLOUDY    47  38  71 N12       30.06R
SIREN          MOCLDY    54  34  47 N12       30.05R
CUMBERLAND     CLOUDY    46  32  57 SW6       30.03F
RICE LAKE      CLOUDY    50  34  53 SW5       30.05F
CHETEK         CLOUDY    47  35  63 SW6       30.04F
LADYSMITH      CLOUDY    43  35  73 CALM      30.05F
EAU CLAIRE     NOT AVBL
MENOMONIE      CLEAR     45  39  78 CALM      30.06F
NEW RICHMOND   PTCLDY    47  36  64 SW6       30.06F
OSCEOLA        CLOUDY    50  37  61 SW7       30.07F
$$

WIZ003>005-009-010-017-018-230900-
NORTH CENTRAL WISCONSIN

CITY           SKY/WX    TMP DP  RH WIND       PRES   REMARKS
MANITOWISH WTR CLOUDY    44  39  83 N6        30.03R
ARBOR VITAE    CLOUDY    43  35  73 CALM      30.01F
WOODRUFF       CLOUDY    43  35  73 CALM      30.01F
RHINELANDER    PTCLDY    46  34  62 W3        30.02F
EAGLE RIVER    CLOUDY    39  33  78 CALM      30.01F
LAND O LAKES   MOCLDY    38  35  87 N5        30.04S WCI  35
PHILLIPS       CLOUDY    46  33  61 S3        30.01F
TOMAHAWK       CLOUDY    47  32  56 SW3       30.03F
MEDFORD        CLOUDY    48  33  56 SW7       30.04F
MERRILL        CLOUDY    46  33  61 W5        30.05F
$$

WIZ029-030-035-036-043>047-230900-
CENTRAL WISCONSIN

CITY           SKY/WX    TMP DP  RH WIND       PRES   REMARKS
WAUSAU         CLOUDY    51  31  46 SW6       30.03F
MOSINEE        CLOUDY    43  32  65 SW8       30.07F
MARSHFIELD     PTCLDY    48  30  49 SW6       30.06F
STEVENS POINT  CLEAR     36  33  90 CALM      30.07F
WAUPACA        CLEAR     43  32  64 CALM      30.08F
WAUTOMA        CLEAR     34  31  88 CALM      30.10F
WISC RAPIDS    CLEAR     40  33  76 SW5       30.08F
CAMP DOUGLAS   NOT AVBL
$$

WIZ011>013-019>022-031-037>040-048>050-230900-
NORTHEAST WISCONSIN

CITY           SKY/WX    TMP DP  RH WIND       PRES   REMARKS
ANTIGO         CLOUDY    44  33  65 SW8       30.04F
SHAWANO        CLEAR     47  32  55 CALM      30.06F
OCONTO         CLEAR     48  32  53 SW7       30.04F
STURGEON BAY   CLEAR     53  30  41 SW8       30.04F
GREEN BAY      CLEAR     48  36  63 S5        30.06F
MANITOWOC      NOT AVBL
APPLETON       PTCLDY    45  30  57 SW9       30.07S
CLINTONVILLE   CLEAR     45  30  57 SW5       30.06F
OSHKOSH        CLEAR     49  31  49 SW5       30.08F
$$

WIZ032>034-041-042-053>061-230900-
SOUTHWEST WISCONSIN

CITY           SKY/WX    TMP DP  RH WIND       PRES   REMARKS
LA CROSSE      CLEAR     48  41  76 SE9       30.10F
SPARTA         CLEAR     32  31  96 CALM      30.11F
VIROQUA        CLEAR     47  28  47 SW5       30.12S
BOSCOBEL       CLEAR     36  33  89 CALM      30.13F
PRAIRIE DU CHI CLEAR     40  33  74 CALM      30.13F
PLATTEVILLE    CLEAR     48  31  51 CALM      30.14S
$$

WIZ056-057-062-063-064-067-068-230900-
SOUTH CENTRAL WISCONSIN

CITY           SKY/WX    TMP DP  RH WIND       PRES   REMARKS
REEDSBURG      CLEAR     38  36  91 CALM      30.11F
BARABOO/DELLS  CLEAR     39  31  75 S5        30.11F
LONE ROCK      NOT AVBL
MINERAL POINT  CLEAR     50  28  43 CALM      30.12F
MADISON        CLEAR     38  34  85 CALM      30.12S
MIDDLETON      CLEAR     40  34  78 CALM      30.12F
WATERTOWN      CLEAR     37  32  81 CALM      30.12R
MONROE         CLEAR     45  30  57 SW9       30.12F
JANESVILLE     CLEAR     39  32  75 CALM      30.12F
$$

WIZ051-052-058>065-066-070>072-230900-
SOUTHEAST WISCONSIN

CITY           SKY/WX    TMP DP  RH WIND       PRES   REMARKS
MILWAUKEE      CLEAR     43  28  55 CALM      30.11F
WAUKESHA       CLEAR     37  27  65 CALM      30.13S
MILWAUKEE/TIMM CLEAR     37  28  70 CALM      30.12F
RACINE         CLEAR     38  31  76 CALM      30.13F
KENOSHA        CLEAR     36  30  79 W3        30.12S
FOND DU LAC    CLEAR     46  32  58 SW7       30.09F
SHEBOYGAN      CLEAR     42  30  62 SW7       30.09F
WEST BEND      CLEAR     37  28  70 CALM      30.11S
JUNEAU         CLEAR     43  32  65 CALM      30.12F
$$

LSZ147-162-230900-
LAKE SUPERIOR

STATION/POSITION TIME  TEMP    WIND        PRES    WAVE
                       AIR SEA DIR/SP/G            HT/PER
                 (UTC) (F)     (DEG/KT/KT) (MB)    (FT/S)
DEVILS ISLAND    0700   44     360/ 13/ 13 1019.9R
PORT WING        0630   43      40/  5/  7 1018.6S
SAXON HARBOR     0730   43      CALM  /  2 1018.3S
$$

LMZ867-665-643>646-230900-
LAKE MICHIGAN

STATION/POSITION TIME  TEMP    WIND        PRES    WAVE
                       AIR SEA DIR/SP/G            HT/PER
                 (UTC) (F)     (DEG/KT/KT) (MB)    (FT/S)
CHAMBERS ISLAND  0740   48     200/  5/ 11 1016.3F
N MID LAKE BUOY  0650   41 37  200/ 12/ 14 1017.6F   2/ 4
NORTHPORT PIER   0740   54     230/  7/ 12 1016.3F
SISTER BAY       0706   54     250/ 15/ 17   N/A
KEWAUNEE LAKESHO 0730   49     250/  6/ 11 1017.4F
SHEBOYGAN LAKESH 0700   48     250/ 10/ 11 1019.2F
PORT WASHINGTON  0740   47     270/  4/  6 1020.3F
MILWAUKEE LAKESH 0740   51     240/  6/  7   N/A
KENOSHA   LAKESH 0700   49     260/  7/  8 1020.0
$$

TC  - TEMPERATURE IN CELSIUS
VSB - VISIBILITY IN STATUTE MILES
WCI - WIND CHILL INDEX
HX  - HEAT INDEX





USA.gov is the U.S. government's official web portal to all federal, state and local government web resources and services.